Vertical_Velocity
-2 -2 -2 -2 -3 -4 -6 -7 -7 -6 -6 -6 -6 -4 0 5 8 10 11 10 6 3 1 -2 -2 -2 -0 3 3 3 1 -1 -3 -4 -4 -4 -2 -2 -2 -2 -1 -0 0 0 1 2 2 2 2 2 1 1 2 1 1 -1 -1 -2 -1 -1 -1 -1 -0 -0 -0 -0 -1 -1 -2
-3 -3 -3 -4 -5 -5 -5 -5 -6 -6 -6 -7 -7 -5 -3 1 3 5 6 8 7 5 2 -0 -0 1 2 4 4 3 1 -1 -4 -5 -5 -4 -2 -2 -2 -2 -0 0 1 1 1 1 2 2 2 1 1 1 1 1 0 -1 -1 -1 -1 -1 -1 -0 -0 0 0 0 1 1 0
-0 -1 -1 -1 -2 -2 -3 -3 -4 -4 -5 -5 -5 -5 -4 -1 3 4 4 2 4 4 3 1 1 2 4 6 5 4 1 -1 -3 -5 -5 -3 -2 -2 -2 -1 -0 1 1 0 0 1 1 2 1 1 0 0 1 0 -0 -0 0 -0 -0 -0 -0 -0 -1 -1 0 1 1 1 0
4 3 3 2 1 0 -1 -1 -2 -2 -3 -5 -5 -5 -3 -0 3 4 4 3 3 2 1 -1 -0 2 5 7 6 3 1 -1 -3 -4 -3 -1 -2 -2 -2 -1 -0 -0 -0 -0 -0 1 1 1 1 0 0 0 1 1 -0 -1 0 0 0 0 -0 -1 -1 -1 0 0 0 -0 -0
5 4 4 4 3 2 2 1 1 0 -2 -4 -5 -4 -2 -0 1 2 3 5 2 -0 -2 -1 0 2 5 8 5 2 -1 -2 -3 -3 -2 -0 -2 -3 -2 -1 -1 -1 -1 -1 -0 1 1 1 1 0 0 1 1 0 -0 -1 -0 0 0 -0 -1 -1 -1 -0 0 0 -0 -0 -0
4 4 4 5 4 4 3 2 1 -0 -1 -3 -4 -4 -3 -3 -2 -0 1 1 1 1 1 3 4 5 6 8 5 1 -2 -4 -4 -3 -2 -2 -4 -4 -3 -2 -2 -2 -2 -1 -0 1 1 1 1 1 1 1 1 1 1 -0 -0 -0 -1 -1 -2 -2 -1 -0 -0 -0 -0 0 -0
3 3 4 4 4 3 2 2 1 -0 -1 -2 -3 -5 -6 -7 -4 -2 -0 0 1 3 4 5 5 6 7 7 3 -0 -2 -4 -5 -4 -3 -4 -5 -5 -4 -3 -2 -2 -1 -1 -0 1 1 2 1 1 1 1 1 1 1 0 -0 -1 -1 -3 -3 -2 -1 -1 -1 -0 0 0 0
5 4 3 3 3 3 3 3 2 1 0 -1 -3 -5 -6 -6 -4 -2 0 1 1 2 3 3 3 4 6 5 1 -2 -3 -3 -4 -3 -2 -4 -4 -4 -3 -2 -2 -2 -1 -0 0 0 1 2 1 1 0 -0 0 1 0 -1 -1 -1 -2 -2 -2 -2 -2 -1 -1 0 1 1 1
9 5 3 3 3 3 3 3 3 2 1 -0 -2 -3 -4 -4 -3 -1 -1 -1 0 2 3 4 3 5 6 5 1 -1 -2 -2 -2 -2 -2 -3 -4 -3 -2 -1 -1 -1 -0 0 0 1 1 1 1 0 -1 -1 -0 -0 -1 -2 -2 -1 -1 -2 -2 -2 -1 -1 -0 1 1 1 0
11 7 4 3 3 3 3 4 4 4 3 2 1 -0 -1 -2 -1 -1 -1 -1 2 4 5 5 5 5 6 5 3 1 -1 -2 -1 -1 -1 -2 -3 -2 -1 -1 -1 -1 -1 -0 0 1 1 0 -0 -1 -1 -1 -0 -0 -1 -2 -2 -1 -1 -2 -2 -2 -1 -0 0 1 1 1 -0
14 12 9 7 6 6 5 5 5 5 4 4 3 1 0 -0 -0 0 1 2 3 4 4 4 4 5 5 5 2 -1 -2 -3 -1 -0 -1 -2 -2 -1 -0 0 -1 -1 -1 -1 -0 0 0 -1 -1 -1 -1 -0 0 -0 -1 -2 -1 -1 -1 -2 -2 -2 -1 -0 0 1 1 -0 -1
12 16 16 14 13 11 10 8 6 6 5 5 4 3 2 1 1 1 2 3 3 3 3 3 3 4 4 2 -2 -3 -2 -1 0 -0 -1 -2 -1 -0 1 1 0 -0 -0 -0 -0 -1 -1 -2 -1 -1 -1 -0 -0 -1 -2 -2 -1 -1 -1 -2 -2 -1 -1 -1 -0 -0 -0 -0 -1
5 11 16 19 16 13 11 9 7 6 6 6 6 5 4 3 2 2 2 2 2 3 4 5 5 3 1 -4 -4 -2 -0 1 1 -0 -1 -2 -1 0 1 1 1 1 1 0 -0 -1 -2 -2 -1 -1 -1 -1 -2 -2 -2 -2 -1 -2 -2 -3 -2 -1 -1 -1 -1 -1 -1 -1 -2
2 3 7 15 16 13 10 7 6 6 7 7 7 6 6 5 3 3 2 2 3 4 6 7 7 3 -2 -5 -2 0 1 1 1 -0 -1 -1 -1 -0 -0 0 1 1 1 -0 -1 -1 -1 -1 -1 -1 -1 -1 -2 -2 -2 -1 -2 -2 -3 -3 -2 -2 -1 -1 -1 -1 -1 -2 -2
2 1 2 4 10 13 12 8 6 6 6 7 7 7 6 5 5 4 4 4 4 5 6 7 7 3 -0 -1 2 3 3 2 1 0 -0 -1 -1 -0 -0 0 1 1 0 -1 -1 -1 -1 -1 -1 -1 -1 -2 -2 -2 -1 -1 -1 -2 -2 -2 -2 -1 -0 -0 -0 -1 -1 -2 -2
2 3 2 1 3 8 13 14 11 8 7 6 6 6 6 6 6 6 6 5 4 5 7 7 5 3 2 3 5 6 5 1 1 0 -0 -1 -1 -0 0 1 1 0 -0 -1 -1 -1 -1 -1 -1 -1 -1 -1 -2 -1 -1 -1 -1 -1 -1 -1 -0 0 1 1 0 -0 -1 -1 -2
3 3 3 3 1 3 7 15 17 14 10 6 5 5 5 6 6 7 7 7 5 6 6 6 3 2 3 5 6 5 4 0 -0 -1 -1 -1 -1 -0 0 1 1 0 -1 -1 -1 -1 -1 -1 -1 -1 -1 -1 -1 -1 -1 -0 -0 -0 -0 -0 0 1 1 1 1 1 1 0 -0
3 3 3 3 2 2 3 7 15 18 16 11 6 4 4 5 7 8 8 8 6 5 5 4 2 1 3 5 5 3 1 -1 -1 -1 -1 -1 -0 0 1 1 1 1 0 -0 -1 -1 -1 -1 -1 -1 -1 -1 -1 -1 -0 1 1 1 0 -0 -0 0 1 2 2 2 1 0 0
2 3 3 2 3 3 4 4 8 14 19 18 12 7 5 6 7 8 8 7 5 4 3 3 2 1 2 4 4 2 0 -1 -1 -1 -0 0 1 2 2 2 2 1 1 1 0 -0 -0 -0 -0 -1 -1 -2 -2 -1 -0 1 2 1 1 -0 -1 -0 1 2 2 2 1 0 0
1 1 2 4 4 4 4 4 4 6 10 16 16 14 11 9 9 8 7 5 3 3 3 3 1 0 0 3 3 2 1 1 1 1 1 2 2 2 2 2 1 1 1 1 0 0 0 1 1 0 -1 -1 -1 -1 0 1 2 1 0 -1 -1 -1 1 2 2 2 1 -0 -0
-1 0 2 5 5 6 6 6 6 6 5 7 12 16 17 14 12 10 8 6 4 4 3 3 0 -1 -1 2 2 2 1 1 1 1 2 3 3 2 2 2 1 1 1 0 0 0 0 1 1 0 -0 -0 0 1 1 1 1 0 -1 -1 -1 -1 1 2 2 2 1 -0 -1
-3 -1 1 3 4 5 5 5 6 6 5 5 7 10 14 17 15 13 11 8 6 5 4 2 -1 -1 0 4 3 3 2 1 1 2 3 3 4 3 3 2 1 0 0 -0 -1 -0 -0 0 0 0 0 1 2 2 2 1 -0 -1 -1 -1 -1 0 1 2 2 2 1 -0 -0
-3 -2 -1 1 2 2 2 2 2 3 3 3 4 5 8 12 14 14 12 8 6 4 3 3 1 1 4 7 6 5 3 2 2 2 3 4 4 4 3 2 1 -0 -1 -1 -1 -1 -1 -0 -0 0 1 2 2 3 2 1 -0 -1 -1 -1 -0 1 2 2 2 2 1 1 1
-3 -3 -3 -2 -0 0 0 -0 -0 0 1 2 2 3 4 4 7 9 9 6 4 3 3 4 4 6 8 9 8 6 4 4 3 4 4 5 4 3 2 1 0 -1 -2 -2 -2 -2 -1 -1 -1 -0 1 2 3 2 2 0 -1 -1 -0 0 1 1 2 2 2 1 1 1 1
-2 -3 -4 -5 -3 -2 -0 0 -1 -1 -1 1 3 3 4 4 3 4 4 4 3 2 2 3 5 7 9 8 7 6 5 5 5 4 4 3 3 2 1 1 -1 -2 -3 -3 -3 -2 -1 -1 -1 -1 0 1 2 1 1 -1 -1 0 1 2 1 2 2 2 2 1 1 1 1
-3 -4 -4 -5 -5 -4 -3 -1 -0 -0 -1 -2 -1 1 3 4 4 3 3 3 2 2 1 1 3 5 6 6 5 5 4 4 5 5 4 3 2 1 -1 -2 -3 -4 -5 -5 -3 -2 -1 0 1 1 1 0 -0 -1 -1 -2 -0 1 2 3 2 2 1 1 1 1 1 1 1
-4 -5 -5 -5 -5 -6 -5 -4 -2 -0 1 -0 -2 -3 -3 -0 2 2 2 2 2 1 1 -1 0 2 4 4 4 4 3 3 4 4 5 5 3 -0 -3 -4 -5 -5 -5 -4 -3 -2 -1 -0 1 1 1 -0 -2 -3 -3 -3 -1 1 2 2 2 2 1 1 0 0 1 1 1
-3 -4 -4 -5 -6 -6 -6 -6 -5 -3 -1 1 1 -0 -2 -4 -2 -1 0 0 1 1 1 -0 -0 1 2 3 3 3 3 3 4 4 5 6 4 1 -2 -3 -3 -3 -3 -2 -1 -1 -1 -2 -1 -1 -1 -1 -2 -3 -3 -2 -0 1 1 1 1 1 1 1 1 1 1 0 1
-1 -2 -3 -4 -6 -6 -6 -6 -7 -7 -5 -3 -0 2 2 -1 -2 -1 -0 0 0 1 1 1 0 1 1 2 2 3 3 3 3 4 4 4 3 2 0 -1 -1 -1 -0 0 -0 -1 -2 -2 -2 -2 -1 -1 -2 -2 -1 0 1 1 1 1 0 0 0 0 1 1 1 1 1
-1 -1 -1 -2 -4 -5 -6 -6 -6 -6 -7 -6 -3 -1 1 2 1 0 1 2 2 1 1 1 1 1 1 1 2 2 3 3 4 4 3 3 2 0 -1 -1 -1 0 1 1 -0 -1 -2 -2 -2 -1 -0 0 -0 0 1 1 2 2 2 1 1 1 0 -0 0 0 1 1 1
-0 -1 -2 -2 -2 -3 -4 -5 -5 -5 -6 -7 -6 -4 -2 1 1 1 2 2 2 2 1 0 1 1 1 2 1 2 2 3 4 4 3 2 1 -0 -1 -1 -1 -0 -0 0 -1 -1 -2 -2 -1 -0 1 1 1 1 2 3 3 3 3 2 2 2 1 0 -0 0 1 2 2
1 -0 -1 -2 -2 -2 -3 -3 -4 -5 -5 -6 -7 -6 -4 -2 -1 1 2 2 2 2 2 2 3 3 3 3 2 2 2 3 3 2 2 1 1 0 -0 -1 -1 -1 -1 -1 -1 -1 -1 -1 -0 1 1 1 1 1 2 4 4 4 4 4 4 3 2 1 0 0 1 2 2
1 1 -0 -1 -2 -2 -2 -3 -4 -4 -4 -5 -6 -7 -7 -5 -2 0 2 3 2 2 2 2 3 3 4 4 3 2 2 2 2 2 1 -0 -0 0 0 -0 -1 -1 -1 -1 -1 -1 -0 0 1 1 1 1 1 2 3 4 4 4 4 4 4 4 3 2 1 1 2 2 2
-1 0 1 1 -0 -1 -2 -2 -3 -3 -4 -4 -5 -6 -7 -7 -4 -1 1 2 3 3 2 1 2 2 2 2 2 2 1 2 2 2 2 0 -0 -0 -0 -1 -1 -1 -0 0 -0 -0 -0 0 1 2 2 2 2 2 3 3 3 3 3 4 4 4 3 2 2 2 2 2 2
-2 -1 0 1 1 1 -0 -1 -2 -3 -3 -3 -3 -4 -6 -7 -6 -4 -1 1 3 3 3 2 2 1 1 1 1 0 -0 0 0 1 1 0 -0 -1 -1 -1 -1 -1 0 1 1 0 -0 -0 1 2 3 3 3 2 2 2 2 3 3 4 4 4 3 2 2 1 1 0 0
-3 -2 -1 0 1 1 1 0 -1 -2 -2 -2 -2 -2 -3 -5 -6 -5 -3 -1 1 2 2 2 2 3 3 1 0 -0 -0 -1 -2 -2 -1 -0 -1 -1 -1 -1 0 1 1 1 1 1 0 0 1 3 4 4 3 2 2 2 2 3 4 5 4 4 3 2 1 0 -0 -1 -1
-3 -3 -2 -1 -0 1 1 1 1 -0 -1 -2 -2 -2 -2 -3 -4 -5 -5 -4 -3 -1 0 1 2 3 4 4 2 1 0 -1 -2 -2 -1 -0 0 0 -0 -1 1 2 2 2 2 1 1 1 2 3 4 4 3 2 2 3 4 4 5 5 4 4 3 2 1 -0 -1 -1 -1
-2 -2 -3 -2 -2 -1 0 1 1 1 0 -1 -1 -1 -2 -2 -3 -4 -6 -7 -6 -5 -3 -0 1 2 3 5 4 3 2 1 0 0 1 1 2 2 2 2 2 3 4 4 4 3 2 2 2 3 3 3 3 3 4 4 5 5 5 4 4 3 2 1 1 -0 -0 -0 0
-1 -2 -2 -2 -2 -1 -0 0 1 1 1 1 -0 -1 -1 -1 -2 -3 -4 -6 -7 -7 -6 -3 -1 1 2 3 4 5 4 3 2 2 2 3 3 3 3 3 3 3 4 5 5 5 4 3 3 3 3 3 4 4 4 5 5 5 5 4 3 3 2 1 0 -0 -0 0 0
-1 -1 -1 -1 -2 -1 -1 -0 0 1 1 1 1 0 -0 0 0 -0 -1 -3 -5 -6 -6 -6 -3 -1 1 2 3 5 6 6 4 3 3 2 2 1 1 1 2 2 2 5 6 6 5 3 3 3 3 4 4 4 5 5 5 4 4 4 3 2 1 1 0 0 0 1 0
-0 -0 -0 -0 -1 -1 -1 -1 -0 0 1 1 1 1 0 1 1 2 2 1 -1 -4 -6 -7 -6 -4 -2 0 1 3 4 5 4 3 3 2 2 1 0 -0 0 1 2 5 7 7 6 4 3 2 3 3 4 4 4 4 4 4 3 3 2 1 1 1 1 0 0 0 0
Height
1354 1356 1357 1358 1359 1361 1362 1364 1366 1367 1369 1371 1372 1374 1375 1376 1377 1376 1376 1377 1378 1379 1381 1383 1385 1386 1388 1390 1392 1394 1396 1398 1400 1402 1404 1406 1409 1411 1412 1413 1414 1415 1416 1417 1418 1420 1421 1422 1423 1425 1426 1427 1428 1429 1430 1431 1432 1434 1435 1437 1438 1439 1440 1441 1442 1444 1445 1446 1447
1356 1356 1358 1359 1360 1361 1363 1365 1366 1368 1370 1371 1373 1375 1376 1376 1377 1377 1377 1377 1377 1378 1380 1382 1383 1385 1387 1389 1391 1393 1396 1397 1400 1401 1404 1406 1408 1410 1411 1412 1413 1414 1415 1416 1417 1418 1420 1421 1422 1424 1425 1426 1427 1428 1429 1430 1431 1433 1435 1436 1437 1438 1439 1441 1441 1443 1444 1445 1446
1356 1357 1358 1359 1361 1362 1363 1365 1367 1368 1370 1371 1373 1375 1376 1376 1376 1376 1377 1377 1377 1378 1379 1381 1383 1385 1386 1389 1391 1393 1395 1397 1399 1401 1403 1405 1407 1409 1411 1412 1413 1413 1414 1415 1416 1418 1419 1421 1422 1423 1424 1425 1426 1427 1428 1430 1431 1432 1434 1435 1436 1437 1438 1440 1441 1442 1443 1444 1445
1357 1358 1359 1360 1361 1362 1363 1365 1366 1368 1369 1371 1372 1374 1375 1376 1376 1376 1376 1377 1378 1378 1379 1381 1382 1385 1387 1389 1390 1392 1395 1397 1399 1401 1403 1405 1407 1408 1410 1411 1412 1413 1414 1415 1416 1417 1419 1420 1421 1422 1423 1424 1426 1426 1427 1428 1430 1431 1433 1434 1435 1436 1437 1439 1440 1441 1441 1442 1444
1357 1358 1359 1360 1361 1362 1363 1364 1366 1367 1368 1370 1371 1373 1374 1375 1375 1376 1376 1377 1378 1379 1380 1381 1383 1385 1387 1389 1390 1392 1394 1396 1398 1401 1402 1404 1406 1408 1409 1411 1411 1412 1413 1415 1416 1417 1418 1419 1421 1421 1423 1424 1425 1426 1426 1428 1429 1430 1431 1433 1434 1435 1436 1438 1439 1440 1441 1441 1442
1358 1359 1360 1361 1361 1362 1363 1364 1366 1367 1368 1369 1371 1372 1374 1375 1375 1376 1376 1377 1378 1379 1380 1382 1383 1385 1387 1388 1390 1392 1394 1396 1398 1400 1402 1404 1406 1407 1409 1410 1411 1412 1413 1414 1416 1416 1418 1419 1420 1421 1422 1423 1424 1425 1426 1427 1428 1429 1430 1431 1433 1434 1436 1437 1438 1439 1440 1441 1442
1360 1361 1361 1362 1362 1363 1364 1365 1366 1367 1368 1369 1371 1372 1373 1374 1375 1376 1377 1377 1378 1379 1381 1382 1384 1385 1387 1388 1390 1392 1394 1396 1398 1400 1401 1404 1406 1407 1409 1410 1411 1412 1413 1414 1415 1416 1417 1418 1419 1420 1421 1422 1423 1424 1425 1426 1427 1428 1429 1431 1432 1433 1435 1436 1437 1438 1439 1440 1441
1362 1362 1363 1363 1364 1364 1365 1366 1366 1367 1368 1369 1371 1372 1373 1375 1376 1377 1378 1378 1379 1380 1381 1382 1384 1386 1387 1389 1390 1392 1394 1396 1398 1399 1401 1403 1406 1407 1409 1410 1411 1412 1413 1414 1415 1416 1416 1417 1418 1419 1420 1421 1422 1423 1424 1425 1426 1427 1428 1430 1431 1432 1434 1435 1436 1437 1438 1439 1440
1364 1364 1364 1365 1365 1366 1366 1366 1367 1368 1369 1370 1371 1372 1373 1375 1376 1377 1378 1378 1379 1380 1381 1383 1384 1386 1387 1389 1391 1392 1394 1396 1397 1399 1401 1403 1405 1407 1408 1409 1410 1411 1412 1413 1414 1415 1416 1417 1417 1418 1419 1420 1421 1422 1422 1423 1425 1426 1427 1429 1430 1431 1433 1434 1435 1436 1437 1438 1439
1366 1366 1366 1366 1366 1366 1367 1367 1368 1369 1370 1370 1371 1372 1374 1375 1376 1377 1378 1379 1379 1380 1381 1383 1384 1386 1388 1390 1391 1392 1394 1396 1397 1399 1401 1403 1405 1406 1407 1409 1410 1411 1411 1412 1413 1414 1415 1416 1417 1417 1418 1419 1420 1421 1422 1422 1424 1425 1427 1428 1429 1431 1432 1433 1435 1436 1436 1437 1438
1368 1368 1367 1367 1367 1368 1368 1368 1369 1370 1370 1371 1372 1373 1374 1375 1376 1377 1378 1379 1380 1381 1382 1383 1385 1386 1388 1390 1391 1393 1394 1396 1397 1399 1401 1403 1404 1406 1407 1408 1409 1410 1411 1412 1413 1413 1414 1415 1416 1417 1418 1419 1420 1420 1421 1422 1423 1425 1426 1427 1428 1430 1431 1432 1434 1435 1436 1436 1437
1369 1370 1370 1369 1369 1369 1369 1369 1370 1370 1371 1371 1372 1373 1374 1375 1376 1377 1378 1379 1380 1381 1382 1383 1385 1387 1388 1390 1391 1393 1394 1396 1397 1399 1401 1402 1404 1405 1406 1407 1408 1409 1410 1411 1412 1412 1413 1414 1415 1416 1417 1418 1419 1420 1421 1422 1423 1424 1425 1426 1427 1429 1430 1431 1432 1434 1435 1436 1436
1369 1370 1371 1371 1371 1371 1371 1371 1371 1371 1371 1372 1372 1373 1374 1375 1376 1377 1378 1379 1380 1381 1382 1384 1386 1387 1389 1391 1392 1393 1395 1396 1398 1399 1401 1402 1403 1405 1406 1407 1408 1409 1410 1410 1411 1412 1413 1414 1415 1416 1416 1417 1418 1419 1420 1421 1422 1423 1424 1426 1427 1428 1429 1431 1431 1433 1434 1435 1436
1370 1370 1371 1372 1373 1373 1372 1372 1372 1372 1373 1373 1373 1374 1375 1375 1376 1377 1378 1379 1381 1381 1383 1384 1386 1388 1390 1391 1392 1393 1395 1396 1398 1399 1401 1402 1403 1404 1405 1406 1407 1408 1409 1410 1411 1411 1412 1413 1414 1415 1416 1417 1418 1419 1420 1421 1422 1423 1424 1425 1426 1427 1428 1430 1431 1432 1433 1434 1435
1371 1371 1371 1372 1374 1374 1374 1374 1374 1374 1374 1374 1374 1375 1375 1376 1377 1378 1379 1380 1381 1382 1383 1385 1386 1388 1390 1391 1392 1393 1395 1396 1398 1399 1400 1401 1402 1403 1404 1406 1406 1407 1408 1409 1410 1411 1412 1413 1414 1415 1416 1416 1417 1418 1419 1420 1421 1422 1423 1424 1426 1427 1428 1429 1430 1431 1432 1433 1434
1372 1373 1373 1373 1374 1375 1376 1376 1376 1375 1375 1375 1376 1376 1376 1377 1378 1379 1380 1381 1382 1383 1384 1385 1386 1388 1389 1391 1392 1394 1395 1396 1397 1398 1399 1401 1401 1403 1404 1405 1406 1407 1408 1409 1410 1411 1411 1412 1413 1414 1415 1416 1417 1418 1419 1420 1421 1422 1423 1424 1425 1426 1427 1428 1429 1430 1431 1432 1433
1374 1374 1374 1374 1374 1375 1376 1377 1377 1377 1376 1376 1376 1377 1377 1378 1379 1380 1381 1381 1383 1384 1385 1386 1386 1387 1389 1391 1392 1393 1395 1396 1397 1398 1399 1400 1401 1402 1403 1405 1406 1406 1407 1408 1409 1410 1411 1412 1413 1414 1415 1416 1416 1417 1419 1420 1420 1421 1422 1424 1425 1426 1427 1428 1429 1430 1431 1431 1432
1376 1376 1376 1376 1376 1376 1376 1377 1378 1379 1378 1378 1378 1378 1379 1379 1380 1381 1381 1382 1383 1384 1386 1386 1387 1387 1388 1390 1391 1393 1394 1395 1396 1397 1399 1400 1401 1402 1403 1404 1405 1406 1407 1408 1409 1410 1411 1411 1412 1413 1414 1415 1416 1417 1418 1419 1420 1421 1422 1423 1424 1426 1426 1427 1428 1429 1430 1431 1432
1378 1378 1378 1377 1377 1377 1377 1377 1378 1379 1380 1380 1380 1380 1380 1380 1381 1381 1382 1383 1384 1385 1386 1386 1387 1387 1388 1389 1391 1392 1393 1395 1396 1397 1398 1399 1401 1402 1403 1404 1405 1405 1406 1407 1408 1409 1410 1411 1412 1413 1414 1415 1416 1416 1418 1419 1420 1421 1421 1423 1424 1425 1426 1427 1428 1429 1430 1431 1431
1381 1380 1380 1379 1379 1379 1379 1379 1379 1379 1380 1381 1381 1382 1382 1382 1382 1382 1383 1383 1384 1385 1386 1386 1387 1387 1388 1389 1391 1392 1393 1394 1396 1397 1398 1399 1400 1401 1402 1403 1404 1405 1406 1406 1407 1409 1410 1410 1411 1412 1413 1414 1415 1416 1417 1418 1419 1420 1421 1422 1423 1425 1426 1426 1427 1428 1429 1430 1431
1383 1382 1382 1381 1381 1381 1380 1380 1380 1380 1380 1381 1382 1383 1383 1383 1383 1383 1384 1384 1384 1385 1386 1386 1387 1388 1388 1389 1390 1392 1393 1394 1395 1396 1397 1398 1399 1400 1401 1402 1403 1404 1405 1406 1407 1408 1409 1410 1411 1411 1413 1414 1414 1415 1416 1417 1418 1419 1420 1421 1423 1424 1425 1426 1426 1427 1428 1429 1431
1385 1384 1384 1383 1382 1382 1382 1381 1381 1381 1381 1381 1381 1382 1383 1384 1384 1384 1385 1385 1385 1386 1386 1387 1387 1388 1388 1389 1390 1391 1393 1394 1395 1395 1396 1397 1398 1399 1400 1401 1402 1403 1404 1405 1406 1407 1408 1409 1410 1411 1412 1413 1414 1415 1416 1416 1417 1419 1420 1421 1422 1423 1424 1425 1426 1426 1427 1429 1430
1387 1386 1386 1385 1384 1384 1384 1383 1383 1382 1382 1382 1382 1382 1383 1384 1385 1385 1385 1386 1386 1386 1387 1387 1387 1388 1388 1389 1390 1391 1392 1393 1394 1395 1396 1396 1397 1398 1399 1400 1401 1401 1403 1404 1405 1406 1407 1408 1409 1411 1411 1412 1413 1414 1415 1416 1417 1418 1419 1421 1421 1423 1424 1424 1425 1426 1427 1428 1429
1389 1388 1387 1387 1386 1386 1386 1385 1385 1384 1384 1383 1383 1383 1383 1384 1385 1386 1386 1386 1387 1387 1388 1388 1388 1388 1389 1389 1390 1391 1392 1393 1394 1394 1395 1396 1396 1397 1398 1398 1399 1401 1402 1403 1404 1405 1406 1408 1409 1410 1411 1411 1413 1414 1415 1416 1417 1418 1419 1420 1421 1422 1423 1423 1424 1425 1426 1427 1428
1390 1390 1389 1388 1388 1387 1387 1387 1386 1386 1386 1385 1385 1384 1384 1385 1385 1386 1386 1387 1388 1388 1388 1389 1389 1389 1389 1390 1391 1391 1392 1393 1394 1394 1395 1395 1396 1396 1397 1397 1398 1400 1401 1402 1403 1405 1406 1407 1408 1409 1410 1411 1412 1413 1414 1415 1416 1417 1419 1420 1420 1421 1422 1422 1423 1424 1425 1426 1427
1391 1391 1390 1390 1389 1389 1388 1388 1388 1388 1387 1387 1386 1386 1386 1386 1386 1386 1387 1388 1388 1389 1389 1389 1390 1390 1390 1390 1391 1391 1392 1393 1393 1394 1394 1395 1395 1396 1396 1397 1398 1399 1400 1401 1403 1404 1406 1407 1408 1409 1410 1411 1412 1413 1414 1415 1416 1417 1418 1419 1420 1420 1421 1421 1422 1423 1424 1425 1426
1393 1392 1391 1391 1391 1390 1390 1389 1389 1389 1389 1389 1388 1388 1387 1387 1387 1387 1387 1388 1388 1389 1389 1390 1390 1390 1390 1391 1391 1391 1392 1392 1393 1393 1394 1394 1395 1395 1396 1397 1398 1399 1400 1401 1402 1404 1405 1406 1407 1408 1409 1410 1411 1412 1413 1414 1415 1416 1417 1418 1418 1419 1420 1421 1421 1422 1423 1424 1425
1394 1393 1392 1392 1391 1391 1391 1390 1390 1390 1389 1389 1389 1390 1389 1389 1388 1388 1388 1389 1389 1389 1390 1390 1390 1390 1390 1391 1391 1391 1392 1392 1392 1393 1393 1394 1394 1395 1396 1396 1397 1398 1399 1401 1402 1403 1404 1405 1406 1407 1409 1410 1411 1411 1412 1413 1415 1415 1416 1416 1417 1418 1419 1420 1421 1421 1422 1423 1423
1395 1394 1393 1392 1392 1392 1391 1391 1391 1390 1390 1390 1390 1390 1390 1390 1389 1389 1389 1389 1390 1390 1390 1390 1390 1390 1390 1391 1391 1391 1391 1392 1392 1392 1392 1393 1393 1394 1395 1396 1397 1398 1399 1400 1401 1402 1403 1404 1406 1407 1408 1409 1410 1411 1412 1413 1414 1414 1415 1415 1416 1417 1418 1419 1419 1420 1421 1421 1422
1395 1394 1394 1393 1392 1392 1392 1391 1391 1391 1391 1391 1390 1390 1390 1390 1390 1390 1390 1390 1390 1390 1390 1390 1390 1390 1390 1391 1391 1391 1391 1391 1392 1392 1392 1392 1393 1393 1394 1395 1396 1397 1398 1399 1401 1401 1402 1404 1405 1406 1407 1408 1409 1410 1411 1411 1412 1413 1413 1414 1415 1416 1416 1417 1418 1419 1420 1420 1421
1396 1395 1394 1394 1393 1392 1392 1392 1391 1391 1391 1391 1391 1390 1390 1390 1390 1390 1390 1390 1390 1390 1390 1390 1390 1390 1390 1391 1391 1391 1391 1391 1391 1391 1392 1392 1392 1393 1394 1395 1396 1397 1398 1399 1400 1401 1401 1402 1404 1405 1406 1406 1408 1409 1410 1410 1411 1412 1412 1413 1414 1415 1416 1416 1417 1418 1418 1419 1419
1397 1396 1395 1394 1393 1393 1392 1392 1391 1391 1391 1391 1391 1391 1390 1390 1390 1390 1390 1390 1390 1390 1390 1390 1390 1390 1390 1390 1391 1391 1391 1391 1391 1391 1392 1392 1393 1393 1394 1395 1396 1396 1397 1398 1399 1400 1401 1401 1402 1403 1405 1406 1406 1407 1408 1409 1410 1411 1411 1412 1413 1414 1414 1415 1416 1416 1417 1418 1418
1397 1396 1395 1394 1394 1393 1392 1392 1391 1391 1391 1391 1391 1391 1390 1390 1390 1389 1389 1389 1389 1389 1389 1389 1389 1389 1390 1390 1390 1390 1391 1391 1391 1391 1392 1392 1393 1393 1394 1394 1395 1396 1396 1397 1398 1399 1399 1400 1401 1402 1403 1404 1406 1406 1407 1408 1409 1410 1410 1411 1412 1412 1413 1414 1414 1415 1416 1416 1417
1398 1397 1396 1395 1394 1393 1392 1392 1391 1391 1391 1391 1390 1390 1390 1390 1389 1389 1389 1389 1389 1389 1389 1389 1389 1389 1389 1389 1389 1389 1390 1390 1391 1391 1391 1392 1392 1393 1393 1394 1394 1395 1396 1396 1397 1397 1398 1399 1400 1401 1402 1403 1404 1405 1406 1406 1407 1408 1409 1410 1410 1411 1411 1412 1413 1413 1414 1415 1415
1398 1397 1396 1395 1394 1393 1392 1391 1391 1391 1390 1390 1390 1390 1390 1390 1389 1389 1388 1388 1388 1388 1388 1388 1388 1388 1388 1388 1388 1388 1389 1389 1390 1390 1390 1391 1391 1392 1392 1393 1394 1394 1395 1395 1396 1396 1397 1398 1399 1400 1401 1402 1403 1404 1404 1405 1406 1406 1407 1408 1409 1409 1410 1410 1411 1411 1412 1413 1414
1399 1397 1396 1395 1394 1393 1392 1391 1391 1390 1390 1389 1389 1389 1389 1389 1389 1388 1388 1387 1387 1387 1387 1387 1387 1387 1388 1388 1388 1388 1388 1388 1389 1389 1389 1390 1390 1391 1391 1392 1393 1393 1394 1394 1395 1396 1396 1397 1398 1399 1400 1401 1401 1402 1403 1403 1404 1405 1406 1406 1407 1407 1408 1408 1409 1410 1411 1411 1412
1399 1398 1397 1396 1395 1393 1392 1391 1390 1390 1389 1389 1388 1388 1388 1388 1387 1387 1387 1387 1386 1386 1386 1386 1386 1387 1387 1387 1387 1387 1387 1387 1387 1388 1388 1389 1389 1390 1390 1391 1391 1392 1393 1393 1394 1394 1395 1396 1396 1397 1398 1399 1399 1400 1401 1402 1402 1403 1404 1404 1405 1406 1406 1406 1407 1408 1409 1410 1411
1399 1398 1397 1396 1395 1394 1392 1391 1390 1389 1389 1388 1388 1387 1387 1387 1386 1386 1386 1386 1386 1386 1386 1385 1386 1386 1386 1386 1386 1386 1386 1386 1386 1387 1387 1387 1388 1388 1389 1390 1390 1391 1391 1392 1392 1393 1393 1394 1395 1395 1396 1397 1397 1398 1399 1400 1401 1401 1402 1402 1403 1403 1404 1405 1406 1406 1407 1408 1409
1400 1398 1397 1396 1395 1394 1392 1391 1390 1389 1388 1387 1387 1387 1386 1386 1386 1386 1386 1385 1385 1385 1385 1385 1384 1384 1384 1385 1385 1385 1385 1385 1385 1386 1386 1386 1387 1387 1388 1388 1389 1390 1390 1391 1391 1391 1392 1392 1393 1394 1395 1395 1396 1397 1398 1398 1399 1399 1400 1401 1401 1401 1402 1403 1404 1405 1406 1407 1407
1400 1398 1397 1396 1395 1394 1392 1391 1390 1389 1388 1387 1386 1386 1386 1385 1385 1385 1384 1384 1384 1384 1384 1384 1383 1383 1383 1383 1383 1383 1383 1384 1384 1384 1385 1385 1386 1386 1387 1387 1388 1388 1389 1390 1390 1391 1391 1391 1392 1392 1393 1394 1395 1396 1396 1397 1397 1398 1398 1399 1399 1400 1401 1401 1402 1403 1404 1405 1406
1400 1399 1397 1396 1395 1393 1392 1391 1390 1389 1388 1386 1386 1385 1385 1384 1384 1383 1383 1383 1382 1382 1382 1382 1382 1382 1382 1381 1381 1382 1382 1382 1382 1383 1383 1384 1384 1385 1385 1386 1386 1387 1388 1389 1389 1390 1390 1391 1391 1391 1392 1393 1394 1394 1395 1395 1396 1396 1396 1397 1397 1398 1399 1400 1401 1402 1403 1404 1405